Simultaneous Nadir Overpasses (SNOs) Predictions

Prediction of SNOs between METOP-B and TERRA Satellite Orbit:

Table of predicted SNOs for the next 14.0 days since TLE Epoch: 7/27/2013
Index Date (METOP-B) Time (METOP-B) Lat,Lon (METOP-B) SZA (METOP-B ) Date (TERRA) Time (TERRA) Lat,Lon (TERRA) SZA (TERRA ) Distance(km) Time Diff (sec)
1 07/29/2013 03:10:28 -81.30, -0.63 114.74 07/29/2013 03:10:43 -81.30, -0.51 114.72 2.09 15
2 07/29/2013 04:01:07 81.31, 167.24 65.33 07/29/2013 04:00:09 81.31, 167.25 65.31 0.25 58
3 07/31/2013 22:44:47 -81.30, 66.21 114.01 07/31/2013 22:44:59 -81.31, 66.01 114.02 3.34 12
4 07/31/2013 23:35:27 81.31,-126.37 66.02 07/31/2013 23:34:25 81.31,-126.26 66.00 1.94 62
5 08/03/2013 18:19:08 -81.31, 132.63 113.28 08/03/2013 18:19:16 -81.31, 132.44 113.30 3.16 8
6 08/
